Theta_e
347 347 346 346 347 346 346 345 346 346 347 350 350 349 349 349 349 348 347 348 345 348 345 346 347 351 352 352 351 354 354 353 352
345 347 346 346 347 346 346 346 346 346 347 350 350 350 350 351 351 349 347 347 348 347 347 347 352 350 353 352 354 355 354 353 353
347 347 347 347 347 347 347 346 348 348 348 350 350 349 350 350 350 351 349 349 350 348 347 350 351 351 350 350 352 352 355 353 353
348 348 348 348 347 347 347 347 347 349 349 349 350 349 348 348 349 350 351 350 350 351 350 349 350 351 350 350 350 350 351 351 353
346 349 349 349 349 348 348 349 348 349 350 350 350 349 350 350 349 349 349 351 350 350 351 351 350 350 351 350 350 349 351 351 351
347 349 350 350 350 350 350 350 350 350 351 351 351 350 351 350 350 350 350 349 351 351 351 352 352 352 352 351 351 351 350 351 350
345 348 351 351 351 352 351 351 351 351 351 352 351 351 351 351 352 352 352 351 353 354 354 354 354 353 353 352 352 351 351 352 353
349 349 349 352 354 354 352 352 352 352 352 352 352 352 351 351 351 351 351 351 351 352 353 354 354 354 353 352 351 349 349 350 352
349 351 350 352 353 354 353 352 352 351 351 351 351 351 352 351 352 351 351 352 352 352 354 353 354 353 352 352 351 348 347 347 349
348 350 351 352 354 354 352 351 351 352 352 352 352 352 351 351 351 349 348 348 349 349 350 350 351 352 352 352 352 351 348 347 346
349 349 352 353 352 350 351 350 350 351 351 351 351 351 351 350 349 349 349 348 348 348 348 348 349 350 351 352 352 353 352 349 348
347 350 352 351 348 349 350 350 351 350 350 350 350 350 349 349 349 349 350 350 351 349 349 348 347 348 349 351 353 353 350 350 350
347 349 350 348 348 350 346 347 348 347 348 349 350 349 349 350 349 349 348 348 348 349 348 348 348 347 348 349 351 353 351 349 351
340 348 350 348 348 343 344 346 345 346 347 348 348 350 351 351 350 349 348 348 347 345 346 347 345 347 349 349 350 350 350 349 346
340 341 349 349 347 345 348 345 344 346 346 347 348 349 348 348 347 345 344 345 343 342 342 342 346 348 346 348 347 347 346 345 344
341 342 343 349 346 347 347 346 344 345 346 345 344 345 345 344 343 342 341 341 341 341 339 340 342 344 346 340 338 338 339 338 338
342 344 344 349 348 349 349 346 343 342 342 342 342 342 341 340 339 339 338 335 334 335 337 336 337 339 340 338 338 337 335 335 334
345 346 346 349 350 350 348 343 339 339 341 341 340 341 340 339 337 337 334 330 328 329 326 327 331 332 332 334 333 329 329 329 331
347 349 349 351 352 350 343 338 339 339 338 338 339 340 338 337 336 336 335 333 327 326 325 324 325 326 329 328 328 328 328 328 329
347 349 350 352 350 344 339 338 340 339 338 339 340 338 338 335 335 335 336 336 335 331 324 324 324 325 326 328 327 327 328 329 330
Wind_Speed
14 19 19 19 19 24 25 26 25 25 25 24 24 24 23 21 20 17 17 15 15 13 14 12 11 12 13 14 11 10 10 10 8
9 15 20 19 19 23 25 26 26 25 24 23 23 25 23 21 21 20 18 16 15 15 14 12 9 11 12 12 12 12 11 11 9
8 11 16 17 17 21 23 24 24 24 23 22 22 22 23 22 21 20 21 18 18 15 14 14 11 10 9 9 10 11 11 11 10
11 12 15 15 15 20 22 21 22 23 23 21 20 21 21 22 21 20 20 20 19 17 16 16 16 14 12 11 11 12 13 13 12
11 12 14 14 14 17 19 20 20 21 21 21 21 19 21 21 21 19 20 21 21 20 19 17 17 17 16 14 12 12 12 12 13
11 12 14 13 14 14 17 18 19 20 19 20 18 19 20 21 21 21 20 20 19 20 20 20 19 19 19 18 17 14 15 15 13
13 13 14 13 13 13 17 18 18 19 19 19 18 17 18 19 20 19 20 18 18 18 19 20 20 20 20 21 19 17 16 15 15
14 14 15 14 13 12 15 17 17 17 17 18 18 16 16 17 18 18 18 18 18 18 19 20 18 19 20 20 20 20 18 17 16
16 15 15 15 13 13 15 16 17 17 17 17 17 15 14 14 15 16 15 15 14 14 16 18 18 19 20 21 21 22 22 21 18
14 16 16 15 15 14 17 17 17 16 15 14 13 13 13 13 13 14 13 13 13 14 14 14 16 19 21 23 22 21 22 22 22
13 15 16 15 13 16 17 17 16 15 14 13 13 13 13 14 14 14 13 13 15 15 15 16 18 19 21 22 23 22 24 22 21
8 13 14 17 19 19 19 19 18 17 16 14 12 12 12 12 13 13 12 12 13 14 14 15 17 17 18 20 20 21 22 20 18
8 11 17 19 23 23 21 20 19 17 17 17 15 13 11 10 10 9 9 8 8 8 10 13 14 16 15 16 17 17 17 16 17
3 10 16 19 21 22 24 22 20 18 16 15 15 14 12 10 9 8 6 5 4 5 7 7 9 12 13 13 12 13 16 15 15
4 7 17 23 25 22 21 22 22 19 17 15 13 13 12 10 7 5 3 2 3 4 4 5 6 7 7 4 7 9 7 7 9
7 5 16 23 24 26 24 20 21 19 17 15 13 13 11 8 6 4 1 2 3 5 4 5 4 3 4 4 3 2 4 6 7
7 5 13 22 24 24 25 22 19 20 19 16 14 12 10 9 7 4 1 0 1 3 3 3 3 3 3 3 2 2 4 4 5
6 5 13 22 25 26 27 26 21 22 20 18 16 14 10 8 7 6 4 3 2 3 2 1 1 2 3 4 4 4 5 4 3
5 7 15 17 24 28 30 29 24 22 21 18 16 14 11 8 6 7 6 7 7 6 6 7 7 8 8 9 10 6 7 7 7
5 9 15 18 24 20 22 26 19 18 19 18 14 11 10 8 6 7 7 6 6 7 4 7 8 9 8 8 7 7 8 10 12
Wind_Direction
194 199 202 193 193 190 195 200 196 197 196 198 201 203 205 209 212 214 219 219 225 218 237 230 227 229 238 230 230 236 238 243 242
205 197 193 197 193 195 197 195 200 201 200 200 202 203 204 206 211 213 216 223 219 229 236 242 232 244 242 230 232 231 234 242 244
178 189 192 195 194 197 197 200 198 201 202 201 202 201 204 207 212 213 217 219 224 229 233 228 222 229 235 248 254 245 234 239 240
166 173 179 186 192 195 196 201 200 202 205 204 204 203 206 211 213 216 218 220 224 229 233 230 230 233 241 244 247 253 253 255 258
162 168 173 178 182 186 193 200 202 202 203 204 204 205 204 207 214 217 218 223 224 227 231 234 232 232 239 239 239 236 245 254 255
169 174 169 173 175 184 193 199 201 204 203 206 201 199 205 205 210 218 223 224 225 228 232 233 235 234 234 236 233 229 234 240 251
183 183 179 178 176 182 188 195 196 201 201 203 200 196 206 207 213 217 218 227 226 225 227 231 231 233 235 235 234 233 232 230 232
192 187 188 185 179 180 182 186 191 196 199 193 191 191 201 211 217 222 221 224 229 234 231 229 235 232 232 236 235 231 228 231 228
195 192 189 179 179 174 178 179 183 186 191 193 193 199 201 203 205 214 213 210 215 219 224 227 231 233 232 232 236 234 231 232 235
204 194 185 181 176 174 168 169 170 173 176 178 188 194 198 203 204 205 206 208 210 214 222 227 233 237 236 234 235 239 233 236 233
198 193 181 177 170 166 161 159 164 162 167 178 185 195 197 199 202 210 213 221 230 235 238 238 239 240 240 238 235 236 237 235 234
199 188 185 172 166 160 155 156 155 157 159 165 173 182 191 195 205 215 220 225 233 241 238 241 237 236 243 240 236 238 238 231 230
202 179 178 173 162 157 156 156 157 159 160 161 166 174 182 188 191 201 212 222 231 239 249 248 243 238 237 242 246 243 249 235 231
283 183 172 173 166 166 161 160 158 158 161 164 160 163 159 166 172 178 186 196 216 239 249 249 248 244 245 242 241 240 244 246 233
332 232 182 182 171 165 164 162 158 157 161 158 159 157 156 159 166 190 198 230 271 271 271 263 266 247 244 194 203 223 236 231 229
315 255 209 189 179 162 161 168 161 156 151 158 159 158 158 161 168 171 177 284 285 270 279 290 259 262 185 153 166 219 241 265 265
297 235 207 189 176 167 157 161 161 148 149 153 159 158 157 160 170 164 139 1 341 285 257 247 241 217 182 147 171 278 293 282 283
285 225 194 189 176 169 160 153 159 151 151 154 154 150 151 165 173 185 141 86 78 57 55 184 157 163 154 149 132 97 84 76 36
281 209 194 177 173 169 160 152 159 153 150 152 150 145 144 167 181 181 164 147 105 87 98 100 114 121 111 114 120 103 92 82 85
264 197 192 171 178 158 151 143 151 153 154 151 152 141 143 156 180 187 175 172 167 148 109 103 116 124 132 138 131 100 111 100 84